Flag for Chile Weather past 2 weeks in Viña del Mar, Chile

Now
70 °F

Sunny.


Feels Like: 70 °F
Forecast: 56 / 74 °F
Wind: 2 mph from North

Location: Pudahuel

Current Time: Oct 24, 2014 at 10:47:37 AM

Latest Report: Oct 24, 2014 at 10:00 AM


Visibility: 10 mi

Pressure: 30.04 "Hg

Humidity: 46%

Dew point: 48 °F

Location of Viña del MarLocation

Historic Weather in Viña del Mar — Graph

°F

Viña del Mar temperature yesterday

Maximum temperature yesterday: 88 °F (at 3:00 PM)
Minimum temperature yesterday: 57 °F (at 6:00 AM)
Average temperature yesterday: 72 °F

Past Weeks' High & Low Weather Summary

 TemperatureHumidityPressure
High88 °F (Oct 20, 5:00 PM)88% (Oct 22, 7:00 AM)30.15 "Hg (Oct 22, 7:00 AM)
Low37 °F (Oct 10, 7:00 AM)13% (Oct 12, 4:00 PM)29.89 "Hg (Oct 14, 4:00 PM)
Average63 °F49%30.01 "Hg
* Reported Oct 9 9:00 AM — Oct 24 9:00 AM, Viña del Mar, Weather by CustomWeather, © 2014

Note: Actual official high and low records may vary slightly from our data, if they occured in-between our weather recording intervals... More about our weather records

Advertising

Viña del Mar weather history for previous 24 hours

 ConditionsComfort  
Time TempWeatherWind HumidityBarometerVisibility
9:00 AM
Oct 24
66 °FSunny.2 mph52%30.04 "Hg10 mi
8:00 AM57 °FSunny.2 mph72%30.04 "Hg10 mi
7:00 AM54 °FPassing clouds.3 mph77%30.04 "HgN/A
6:00 AM55 °FClear.2 mph72%30.04 "Hg10 mi
5:00 AM59 °FClear.No wind63%30.04 "Hg10 mi
4:00 AM59 °FClear.5 mph63%30.04 "Hg10 mi
3:00 AM61 °FClear.6 mph63%30.04 "Hg10 mi
2:00 AM61 °FClear.5 mph59%30.04 "Hg10 mi
1:00 AM66 °FClear.6 mph46%30.04 "Hg10 mi
12:00 AM66 °FClear.6 mph46%30.04 "Hg10 mi
11:00 PM
Oct 23
68 °FClear.5 mph46%30.04 "Hg10 mi
10:00 PM72 °FPassing clouds.5 mph41%30.04 "HgN/A
9:00 PM73 °FClear.14 mph38%30.01 "Hg10 mi
8:00 PM75 °FSunny.15 mph39%29.98 "Hg10 mi
7:00 PM79 °FSunny.21 mph37%29.98 "Hg10 mi
6:00 PM84 °FSunny.17 mph31%29.95 "Hg10 mi
5:00 PM86 °FSunny.18 mph25%29.95 "Hg10 mi
4:00 PM86 °FSunny.17 mph25%29.95 "Hg10 mi
3:00 PM88 °FPassing clouds.13 mph24%29.98 "HgN/A
2:00 PM84 °FPassing clouds.13 mph35%29.98 "HgN/A
1:00 PM84 °FPassing clouds.12 mph35%29.98 "HgN/A
12:00 PM81 °FSunny.7 mph39%30.01 "Hg10 mi
11:00 AM77 °FSunny.2 mph44%30.01 "Hg10 mi
10:00 AM72 °FPassing clouds.3 mph53%30.01 "HgN/A
Weather by CustomWeather, © 2014

See weather overviewHow to use our weather pages